TimeCST,TemperatureF,Dew PointF,Humidity,Sea Level PressureIn,VisibilityMPH,Wind Direction,Wind SpeedMPH,Gust SpeedMPH,PrecipitationIn,Events,Conditions,WindDirDegrees,DateUTC
12:03 AM,14.0,10.4,86,29.31,7.0,NNW,20.7,-,N/A,,Freezing Rain,340,2014-02-13 06:03:00
12:08 AM,14.0,10.4,86,29.33,6.0,NNW,18.4,-,N/A,,Freezing Rain,340,2014-02-13 06:08:00
12:23 AM,10.4,8.6,92,29.35,4.0,North,18.4,-,N/A,,Freezing Rain,350,2014-02-13 06:23:00
12:58 AM,8.6,5.0,85,29.54,3.0,North,21.9,28.8,0.00,Snow,Light Snow,350,2014-02-13 06:58:00
1:03 AM,6.8,3.2,85,29.42,3.0,North,21.9,27.6,N/A,Snow,Light Snow,350,2014-02-13 07:03:00
1:08 AM,6.8,3.2,85,29.43,3.0,North,20.7,27.6,N/A,Snow,Light Snow,350,2014-02-13 07:08:00
1:13 AM,6.8,3.2,85,29.44,2.5,North,19.6,26.5,N/A,Snow,Light Snow,360,2014-02-13 07:13:00
1:23 AM,6.8,1.4,79,29.46,3.0,North,19.6,24.2,N/A,Snow,Light Snow,350,2014-02-13 07:23:00
1:28 AM,5.0,1.4,85,29.47,2.5,North,16.1,25.3,N/A,Snow,Light Snow,350,2014-02-13 07:28:00
1:58 AM,3.2,-2.2,78,29.65,2.5,NNW,24.2,32.2,0.00,Snow,Light Snow,340,2014-02-13 07:58:00
2:08 AM,1.4,-2.2,85,29.54,2.5,North,20.7,31.1,N/A,Snow,Light Snow,350,2014-02-13 08:08:00
2:13 AM,1.4,-2.2,85,29.54,3.0,North,20.7,28.8,N/A,Snow,Light Snow,350,2014-02-13 08:13:00
2:18 AM,1.4,-4.0,78,29.55,3.0,NNW,21.9,28.8,N/A,Snow,Light Snow,340,2014-02-13 08:18:00
2:33 AM,-0.4,-4.0,85,29.57,3.0,NNW,23.0,32.2,N/A,Snow,Blowing Snow,340,2014-02-13 08:33:00
2:38 AM,-0.4,-4.0,85,29.58,2.5,NNW,24.2,28.8,N/A,Snow,Blowing Snow,340,2014-02-13 08:38:00
2:48 AM,-0.4,-5.8,78,29.59,3.0,NNW,23.0,31.1,N/A,Snow,Blowing Snow,340,2014-02-13 08:48:00
2:53 AM,-2.2,-5.8,85,29.60,3.0,NNW,24.2,31.1,N/A,Snow,Blowing Snow,340,2014-02-13 08:53:00
2:58 AM,-1.7,-6.3,80,29.75,4.0,NNW,21.9,29.9,0.00,Snow,Blowing Snow,340,2014-02-13 08:58:00
3:08 AM,-2.2,-7.6,78,29.62,4.0,NNW,23.0,28.8,N/A,Snow,Blowing Snow,340,2014-02-13 09:08:00
3:23 AM,-2.2,-7.6,78,29.64,4.0,NNW,21.9,29.9,N/A,Snow,Blowing Snow,340,2014-02-13 09:23:00
3:43 AM,-2.2,-7.6,78,29.64,5.0,NNW,20.7,-,N/A,,Freezing Rain,340,2014-02-13 09:43:00
3:53 AM,-2.2,-7.6,78,29.65,6.0,NNW,20.7,-,N/A,,Freezing Rain,340,2014-02-13 09:53:00
3:58 AM,-3.3,-8.3,79,29.80,8.0,NNW,20.7,-,0.00,,Freezing Rain,340,2014-02-13 09:58:00
4:08 AM,-4.0,-9.4,78,29.67,10.0,NNW,17.3,-,N/A,,Freezing Rain,340,2014-02-13 10:08:00
4:13 AM,-4.0,-7.6,85,29.67,9.0,NNW,16.1,-,N/A,,Overcast,340,2014-02-13 10:13:00
4:18 AM,-4.0,-7.6,85,29.68,9.0,NNW,17.3,-,N/A,,Overcast,330,2014-02-13 10:18:00
4:23 AM,-4.0,-9.4,78,29.68,10.0,NNW,19.6,-,N/A,,Overcast,340,2014-02-13 10:23:00
4:48 AM,-4.0,-9.4,78,29.71,10.0,NNW,16.1,-,N/A,,Overcast,330,2014-02-13 10:48:00
4:58 AM,-4.2,-9.8,77,29.86,10.0,NNW,17.3,-,0.00,,Overcast,340,2014-02-13 10:58:00
5:03 AM,-4.0,-9.4,78,29.72,10.0,NNW,17.3,-,N/A,,Overcast,330,2014-02-13 11:03:00
5:18 AM,-5.8,-9.4,84,29.74,10.0,NW,16.1,-,N/A,,Scattered Clouds,320,2014-02-13 11:18:00
5:58 AM,-5.4,-11.0,77,29.91,10.0,NW,15.0,-,N/A,,Clear,320,2014-02-13 11:58:00
6:58 AM,-6.3,-12.1,76,29.92,10.0,NW,12.7,-,N/A,,Clear,320,2014-02-13 12:58:00
7:58 AM,-8.7,-14.4,76,29.95,10.0,West,6.9,-,N/A,,Clear,280,2014-02-13 13:58:00
8:53 AM,-7.6,-14.8,71,29.81,1.5,WNW,10.4,-,N/A,,Haze,300,2014-02-13 14:53:00
8:58 AM,-8.0,-13.7,76,29.96,1.5,WNW,11.5,-,N/A,,Haze,300,2014-02-13 14:58:00
9:03 AM,-7.6,-13.0,77,29.82,8.0,WNW,11.5,-,N/A,,Clear,300,2014-02-13 15:03:00
9:58 AM,-5.4,-12.8,70,29.97,9.0,NW,10.4,-,0.00,,Clear,320,2014-02-13 15:58:00
10:58 AM,-4.2,-11.9,69,29.97,10.0,NW,9.2,-,N/A,,Clear,320,2014-02-13 16:58:00
11:58 AM,-2.7,-10.1,71,29.95,10.0,North,8.1,-,N/A,,Clear,360,2014-02-13 17:58:00
12:58 PM,-2.0,-9.8,70,29.96,10.0,NW,4.6,-,N/A,,Clear,320,2014-02-13 18:58:00
1:58 PM,-0.6,-8.0,71,29.92,10.0,NNE,6.9,-,N/A,,Clear,20,2014-02-13 19:58:00
2:58 PM,-0.8,-7.8,72,29.92,10.0,NNW,2.3,-,N/A,,Clear,330,2014-02-13 20:58:00
3:58 PM,-0.6,-7.2,73,29.93,10.0,NNE,5.8,-,N/A,,Clear,30,2014-02-13 21:58:00
4:58 PM,-0.6,-7.4,73,29.94,10.0,North,2.3,-,N/A,,Clear,360,2014-02-13 22:58:00
5:58 PM,-0.4,-7.1,73,29.94,10.0,NE,5.8,-,N/A,,Clear,40,2014-02-13 23:58:00
6:58 PM,-0.4,-6.5,75,29.94,10.0,ENE,5.8,-,N/A,,Clear,60,2014-02-14 00:58:00
7:58 PM,-0.0,-6.0,76,29.96,10.0,NE,1.2,-,N/A,,Clear,50,2014-02-14 01:58:00
8:58 PM,0.3,-5.8,75,29.97,10.0,NNE,2.3,-,N/A,,Clear,20,2014-02-14 02:58:00
9:58 PM,0.5,-5.6,75,29.99,10.0,East,3.5,-,N/A,,Clear,80,2014-02-14 03:58:00
10:58 PM,0.3,-5.6,76,30.00,10.0,ENE,4.6,-,N/A,,Partly Cloudy,70,2014-02-14 04:58:00
11:58 PM,0.3,-5.6,76,30.01,10.0,East,3.5,-,N/A,,Partly Cloudy,80,2014-02-14 05:58:00